Powrót do katalogu

STARLINK-35099

AktywnyŁącznośćVLEO
NORAD 65735·PAYLOAD·🇺🇸 United States

Wystrzelony Sep 25, 2025 z Cape Canaveral Space Force Station

Loading…

Następne Przeloty (najbliższe 24 godziny)

TLE

ŚwieżeSource: CelesTrak SupGP

Epoka: Sep 14, 2026, 22:33 UTC

1 65735C 25216B   26257.94006944 -.00045709  00000+0 -13500-2 0  2574
2 65735  53.1575 171.7100 0001305  81.0152 104.3119 15.34424798    14

Śledź STARLINK-35099 w czasie rzeczywistym z AllMySat

Download on the App Store